Regional Weather Roundup
Issued by NWS Memphis, TN

Home | Current Version | Previous Version | Text Only | Print | Product List | Glossary On
Versions: 1 2 3 4 5 6 7 8 9 10 11 12 13 14 15 16 17 18 19 20 21 22 23 24 25 26 27 28 29 30 31 32 33 34 35 36 37 38 39 40 41 42 43 44 45 46 47 48 49 50
000
ASUS44 KMEG 261610
RWRMEG
MEMPHIS CWA HOURLY WEATHER ROUNDUP
NATIONAL WEATHER SERVICE MEMPHIS TN
1000 AM CST FRI DEC 26 2014

...WEST TENNESSEE...

CITY           SKY/WX    TMP DP  RH WIND       PRES   REMARKS
MEMPHIS INTL   CLOUDY    48  37  65 S7        30.25R
NWS MEMPHIS      N/A     47 N/A N/A MISG        N/A
JACKSON        PTSUNNY   48  36  63 S7        30.27R
LEXINGTON      SUNNY     46  37  71 S7        30.28S
SAVANNAH       SUNNY     45  37  76 S7        30.31R
DYERSBURG      CLOUDY    46  30  53 S10       30.26S
UNION CITY     SUNNY     45  39  81 S10       30.23S
PARIS          SUNNY     46  37  71 S9        30.25S
HUNTINGDON     PTSUNNY   45  37  73 S10       30.27S


...EASTERN ARKANSAS...

CITY           SKY/WX    TMP DP  RH WIND       PRES   REMARKS
JONESBORO      CLOUDY    44  40  85 S8        30.22R
WEST MEMPHIS   CLOUDY    48  40  73 S15       30.24R
BATESVILLE     CLOUDY    46  36  66 S10       30.20R
NEWPORT        CLOUDY    47  40  76 S10       30.22R
WALNUT RIDGE   CLOUDY    45  37  76 S10       30.19R
BLYTHEVILLE    CLOUDY    48  40  73 S12       30.24R
SEARCY         CLOUDY    46  40  79 S6        30.22R
STUTTGART      CLOUDY    48  37  66 SE12      30.21R
PINE BLUFF     CLOUDY    50  38  63 SE9       30.20R
MONTICELLO     CLOUDY    47  40  76 SE9       30.21R


...NORTH MISSISSIPPI...

CITY           SKY/WX    TMP DP  RH WIND       PRES   REMARKS
TUPELO         PTSUNNY   43  38  82 MISG      30.33R
OXFORD         PTSUNNY   45  36  70 SE8G16    30.29S
OLIVE BRANCH   PTSUNNY   45  41  87 SE8       30.26R
TUNICA         CLOUDY    46  41  81 SE10      30.26S
CLARKSDALE     CLOUDY    46  39  76 SE10      30.25F
CORINTH        PTSUNNY   46  39  76 SE8       30.30R
GRENADA        CLOUDY    43  39  87 CALM      30.30S
COLUMBUS       CLOUDY    44  41  88 SE7       30.34R
STARKVILLE     FAIR      41  37  87 SE3       30.34R
GOLDEN TRIANGL SUNNY     45  39  81 S7        30.33R


...SOUTHEAST MISSOURI...

CITY           SKY/WX    TMP DP  RH WIND       PRES   REMARKS
WEST PLAINS    MOSUNNY   43  38  82 S12       30.13R
POPLAR BLUFF   CLOUDY    46  37  71 S7        30.20R
CAPE GIRARDEAU PTSUNNY   48  40  73 S12G18    30.21S


...NORTHWEST ALABAMA...

CITY           SKY/WX    TMP DP  RH WIND       PRES   REMARKS
MUSCLE SHOALS  CLOUDY    44  38  79 SE9       30.34R


...MIDDLE TENNESSEE...

CITY           SKY/WX    TMP DP  RH WIND       PRES   REMARKS
NASHVILLE      MOSUNNY   49  38  65 S10       30.32S
CLARKSVILLE    SUNNY     48  39  71 SW5       30.28R
COLUMBIA       SUNNY     46  46 100 S7        30.30R


...WESTERN KENTUCKY...

CITY           SKY/WX    TMP DP  RH WIND       PRES   REMARKS
PADUCAH        MOSUNNY   48  37  65 S10       30.22S
FORT CAMPBELL  SUNNY     48  38  69 SW9       30.27R


...CENTRAL ARKANSAS...

CITY           SKY/WX    TMP DP  RH WIND       PRES   REMARKS
LITTLE ROCK    CLOUDY    47  38  71 SE6       30.20R


SKY/WX REPORTED AS FAIR MEANS FEW OR NO CLOUDS BELOW
12 THOUSAND FEET.



USA.gov is the U.S. government's official web portal to all federal, state and local government web resources and services.